Tracking 30918 objects as of 2-Jul-2025
HD Live streaming from Space Station
objects crossing your sky now

NINGXIA-1 2

Track NINGXIA-1 2 now!
10-day predictions


NORAD ID: 44780
Int'l Code: 2019-076B
Perigee: 888.9 km
Apogee: 899.5 km
Inclination: 45.0 °
Period: 102.7 minutes
Semi major axis: 7265 km
RCS: Unknown
Launch date: November 13, 2019
Source: People's Republic of China (PRC)
Launch site: Taiyaun Space Center, China (TSC)
Your satellite tracking list
ELECTRON KICK STAGE R/B
Track 1 satellite(s)




NASA's NSSDC Master Catalog

Two Line Element Set (TLE):
1 44780U 19076B   25182.78292764 -.00000103  00000-0  17377-4 0  9993
2 44780  45.0104 305.9310 0007303 285.2876  74.7151 14.01945605288683
Source of the keplerian elements: AFSPC